Index of /20260504/WXO-DD/model_rdps/10km/06/018
Name Last modified Size Description
Parent Directory -
20260504T06Z_MSC_RDPS_AbsoluteVorticity_IsbL-0250_RLatLon0.09_PT018H.grib2 2026-05-04 08:43 613K
20260504T06Z_MSC_RDPS_AbsoluteVorticity_IsbL-0500_RLatLon0.09_PT018H.grib2 2026-05-04 08:43 568K
20260504T06Z_MSC_RDPS_AbsoluteVorticity_IsbL-0700_RLatLon0.09_PT018H.grib2 2026-05-04 08:43 624K
20260504T06Z_MSC_RDPS_AbsoluteVorticity_IsbL-0850_RLatLon0.09_PT018H.grib2 2026-05-04 08:43 789K
20260504T06Z_MSC_RDPS_AirTemp_AGL-120m_RLatLon0.09_PT018H.grib2 2026-05-04 08:43 389K
20260504T06Z_MSC_RDPS_AirTemp_AGL-2m_RLatLon0.09_PT018H.grib2 2026-05-04 08:43 624K
20260504T06Z_MSC_RDPS_AirTemp_AGL-40m_RLatLon0.09_PT018H.grib2 2026-05-04 08:43 398K
20260504T06Z_MSC_RDPS_AirTemp_AGL-80m_RLatLon0.09_PT018H.grib2 2026-05-04 08:43 392K
20260504T06Z_MSC_RDPS_AirTemp_IsbL-0001_RLatLon0.09_PT018H.grib2 2026-05-04 08:43 310K
20260504T06Z_MSC_RDPS_AirTemp_IsbL-0005_RLatLon0.09_PT018H.grib2 2026-05-04 08:43 289K
20260504T06Z_MSC_RDPS_AirTemp_IsbL-0010_RLatLon0.09_PT018H.grib2 2026-05-04 08:43 297K
20260504T06Z_MSC_RDPS_AirTemp_IsbL-0020_RLatLon0.09_PT018H.grib2 2026-05-04 08:43 315K
20260504T06Z_MSC_RDPS_AirTemp_IsbL-0030_RLatLon0.09_PT018H.grib2 2026-05-04 08:43 334K
20260504T06Z_MSC_RDPS_AirTemp_IsbL-0050_RLatLon0.09_PT018H.grib2 2026-05-04 08:43 316K
20260504T06Z_MSC_RDPS_AirTemp_IsbL-0100_RLatLon0.09_PT018H.grib2 2026-05-04 08:43 432K
20260504T06Z_MSC_RDPS_AirTemp_IsbL-0150_RLatLon0.09_PT018H.grib2 2026-05-04 08:43 421K
20260504T06Z_MSC_RDPS_AirTemp_IsbL-0175_RLatLon0.09_PT018H.grib2 2026-05-04 08:43 413K
20260504T06Z_MSC_RDPS_AirTemp_IsbL-0200_RLatLon0.09_PT018H.grib2 2026-05-04 08:43 416K
20260504T06Z_MSC_RDPS_AirTemp_IsbL-0225_RLatLon0.09_PT018H.grib2 2026-05-04 08:43 420K
20260504T06Z_MSC_RDPS_AirTemp_IsbL-0250_RLatLon0.09_PT018H.grib2 2026-05-04 08:43 427K
20260504T06Z_MSC_RDPS_AirTemp_IsbL-0275_RLatLon0.09_PT018H.grib2 2026-05-04 08:43 408K
20260504T06Z_MSC_RDPS_AirTemp_IsbL-0300_RLatLon0.09_PT018H.grib2 2026-05-04 08:43 413K
20260504T06Z_MSC_RDPS_AirTemp_IsbL-0350_RLatLon0.09_PT018H.grib2 2026-05-04 08:43 428K
20260504T06Z_MSC_RDPS_AirTemp_IsbL-0400_RLatLon0.09_PT018H.grib2 2026-05-04 08:43 433K
20260504T06Z_MSC_RDPS_AirTemp_IsbL-0450_RLatLon0.09_PT018H.grib2 2026-05-04 08:43 407K
20260504T06Z_MSC_RDPS_AirTemp_IsbL-0500_RLatLon0.09_PT018H.grib2 2026-05-04 08:43 455K
20260504T06Z_MSC_RDPS_AirTemp_IsbL-0550_RLatLon0.09_PT018H.grib2 2026-05-04 08:43 438K
20260504T06Z_MSC_RDPS_AirTemp_IsbL-0600_RLatLon0.09_PT018H.grib2 2026-05-04 08:43 455K
20260504T06Z_MSC_RDPS_AirTemp_IsbL-0650_RLatLon0.09_PT018H.grib2 2026-05-04 08:43 468K
20260504T06Z_MSC_RDPS_AirTemp_IsbL-0700_RLatLon0.09_PT018H.grib2 2026-05-04 08:43 383K
20260504T06Z_MSC_RDPS_AirTemp_IsbL-0750_RLatLon0.09_PT018H.grib2 2026-05-04 08:43 412K
20260504T06Z_MSC_RDPS_AirTemp_IsbL-0800_RLatLon0.09_PT018H.grib2 2026-05-04 08:43 456K
20260504T06Z_MSC_RDPS_AirTemp_IsbL-0850_RLatLon0.09_PT018H.grib2 2026-05-04 08:43 505K
20260504T06Z_MSC_RDPS_AirTemp_IsbL-0875_RLatLon0.09_PT018H.grib2 2026-05-04 08:43 521K
20260504T06Z_MSC_RDPS_AirTemp_IsbL-0900_RLatLon0.09_PT018H.grib2 2026-05-04 08:43 526K
20260504T06Z_MSC_RDPS_AirTemp_IsbL-0925_RLatLon0.09_PT018H.grib2 2026-05-04 08:43 522K
20260504T06Z_MSC_RDPS_AirTemp_IsbL-0950_RLatLon0.09_PT018H.grib2 2026-05-04 08:43 522K
20260504T06Z_MSC_RDPS_AirTemp_IsbL-0970_RLatLon0.09_PT018H.grib2 2026-05-04 08:43 513K
20260504T06Z_MSC_RDPS_AirTemp_IsbL-0985_RLatLon0.09_PT018H.grib2 2026-05-04 08:43 500K
20260504T06Z_MSC_RDPS_AirTemp_IsbL-1000_RLatLon0.09_PT018H.grib2 2026-05-04 08:43 489K
20260504T06Z_MSC_RDPS_AirTemp_IsbL-1015_RLatLon0.09_PT018H.grib2 2026-05-04 08:43 491K
20260504T06Z_MSC_RDPS_Albedo_Sfc_RLatLon0.09_PT018H.grib2 2026-05-04 08:43 155K
20260504T06Z_MSC_RDPS_CAPE_Sfc_RLatLon0.09_PT018H.grib2 2026-05-04 08:43 1.8M
20260504T06Z_MSC_RDPS_CIN_Sfc_RLatLon0.09_PT018H.grib2 2026-05-04 08:43 1.3M
20260504T06Z_MSC_RDPS_CloudWater_EAtm_RLatLon0.09_PT018H.grib2 2026-05-04 08:43 224K
20260504T06Z_MSC_RDPS_ConvectivePrecip-Accum_Sfc_RLatLon0.09_PT018H.grib2 2026-05-04 08:43 771K
20260504T06Z_MSC_RDPS_DewPointDepression_AGL-2m_RLatLon0.09_PT018H.grib2 2026-05-04 08:43 416K
20260504T06Z_MSC_RDPS_DewPointDepression_IsbL-0001_RLatLon0.09_PT018H.grib2 2026-05-04 08:43 193
20260504T06Z_MSC_RDPS_DewPointDepression_IsbL-0005_RLatLon0.09_PT018H.grib2 2026-05-04 08:43 193
20260504T06Z_MSC_RDPS_DewPointDepression_IsbL-0010_RLatLon0.09_PT018H.grib2 2026-05-04 08:43 193
20260504T06Z_MSC_RDPS_DewPointDepression_IsbL-0020_RLatLon0.09_PT018H.grib2 2026-05-04 08:43 193
20260504T06Z_MSC_RDPS_DewPointDepression_IsbL-0030_RLatLon0.09_PT018H.grib2 2026-05-04 08:43 193
20260504T06Z_MSC_RDPS_DewPointDepression_IsbL-0050_RLatLon0.09_PT018H.grib2 2026-05-04 08:43 80K
20260504T06Z_MSC_RDPS_DewPointDepression_IsbL-0100_RLatLon0.09_PT018H.grib2 2026-05-04 08:43 118K
20260504T06Z_MSC_RDPS_DewPointDepression_IsbL-0150_RLatLon0.09_PT018H.grib2 2026-05-04 08:43 142K
20260504T06Z_MSC_RDPS_DewPointDepression_IsbL-0175_RLatLon0.09_PT018H.grib2 2026-05-04 08:43 181K
20260504T06Z_MSC_RDPS_DewPointDepression_IsbL-0200_RLatLon0.09_PT018H.grib2 2026-05-04 08:43 222K
20260504T06Z_MSC_RDPS_DewPointDepression_IsbL-0225_RLatLon0.09_PT018H.grib2 2026-05-04 08:43 264K
20260504T06Z_MSC_RDPS_DewPointDepression_IsbL-0250_RLatLon0.09_PT018H.grib2 2026-05-04 08:43 303K
20260504T06Z_MSC_RDPS_DewPointDepression_IsbL-0275_RLatLon0.09_PT018H.grib2 2026-05-04 08:43 309K
20260504T06Z_MSC_RDPS_DewPointDepression_IsbL-0300_RLatLon0.09_PT018H.grib2 2026-05-04 08:43 324K
20260504T06Z_MSC_RDPS_DewPointDepression_IsbL-0350_RLatLon0.09_PT018H.grib2 2026-05-04 08:43 333K
20260504T06Z_MSC_RDPS_DewPointDepression_IsbL-0400_RLatLon0.09_PT018H.grib2 2026-05-04 08:43 343K
20260504T06Z_MSC_RDPS_DewPointDepression_IsbL-0450_RLatLon0.09_PT018H.grib2 2026-05-04 08:43 349K
20260504T06Z_MSC_RDPS_DewPointDepression_IsbL-0500_RLatLon0.09_PT018H.grib2 2026-05-04 08:43 354K
20260504T06Z_MSC_RDPS_DewPointDepression_IsbL-0550_RLatLon0.09_PT018H.grib2 2026-05-04 08:43 364K
20260504T06Z_MSC_RDPS_DewPointDepression_IsbL-0600_RLatLon0.09_PT018H.grib2 2026-05-04 08:43 374K
20260504T06Z_MSC_RDPS_DewPointDepression_IsbL-0650_RLatLon0.09_PT018H.grib2 2026-05-04 08:43 384K
20260504T06Z_MSC_RDPS_DewPointDepression_IsbL-0700_RLatLon0.09_PT018H.grib2 2026-05-04 08:43 397K
20260504T06Z_MSC_RDPS_DewPointDepression_IsbL-0750_RLatLon0.09_PT018H.grib2 2026-05-04 08:43 414K
20260504T06Z_MSC_RDPS_DewPointDepression_IsbL-0800_RLatLon0.09_PT018H.grib2 2026-05-04 08:43 449K
20260504T06Z_MSC_RDPS_DewPointDepression_IsbL-0850_RLatLon0.09_PT018H.grib2 2026-05-04 08:43 477K
20260504T06Z_MSC_RDPS_DewPointDepression_IsbL-0875_RLatLon0.09_PT018H.grib2 2026-05-04 08:43 475K
20260504T06Z_MSC_RDPS_DewPointDepression_IsbL-0900_RLatLon0.09_PT018H.grib2 2026-05-04 08:43 464K
20260504T06Z_MSC_RDPS_DewPointDepression_IsbL-0925_RLatLon0.09_PT018H.grib2 2026-05-04 08:43 452K
20260504T06Z_MSC_RDPS_DewPointDepression_IsbL-0950_RLatLon0.09_PT018H.grib2 2026-05-04 08:43 444K
20260504T06Z_MSC_RDPS_DewPointDepression_IsbL-0970_RLatLon0.09_PT018H.grib2 2026-05-04 08:43 435K
20260504T06Z_MSC_RDPS_DewPointDepression_IsbL-0985_RLatLon0.09_PT018H.grib2 2026-05-04 08:43 431K
20260504T06Z_MSC_RDPS_DewPointDepression_IsbL-1000_RLatLon0.09_PT018H.grib2 2026-05-04 08:43 426K
20260504T06Z_MSC_RDPS_DewPointDepression_IsbL-1015_RLatLon0.09_PT018H.grib2 2026-05-04 08:43 417K
20260504T06Z_MSC_RDPS_DewPoint_AGL-2m_RLatLon0.09_PT018H.grib2 2026-05-04 08:43 307K
20260504T06Z_MSC_RDPS_DownwardLongwaveRadiationFlux-Accum_Sfc_RLatLon0.09_PT018H.grib2 2026-05-04 08:43 405K
20260504T06Z_MSC_RDPS_DownwardShortwaveRadiationFlux-Accum_NTAtm_RLatLon0.09_PT018H.grib2 2026-05-04 08:43 109K
20260504T06Z_MSC_RDPS_DownwardShortwaveRadiationFlux-Accum_Sfc_RLatLon0.09_PT018H.grib2 2026-05-04 08:43 621K
20260504T06Z_MSC_RDPS_FreezingRain-Accum12h_Sfc_RLatLon0.09_PT018H.grib2 2026-05-04 08:43 45K
20260504T06Z_MSC_RDPS_FreezingRain-Accum1h_Sfc_RLatLon0.09_PT018H.grib2 2026-05-04 08:43 16K
20260504T06Z_MSC_RDPS_FreezingRain-Accum3h_Sfc_RLatLon0.09_PT018H.grib2 2026-05-04 08:43 17K
20260504T06Z_MSC_RDPS_FreezingRain-Accum6h_Sfc_RLatLon0.09_PT018H.grib2 2026-05-04 08:43 21K
20260504T06Z_MSC_RDPS_FreezingRain-Accum_Sfc_RLatLon0.09_PT018H.grib2 2026-05-04 08:43 83K
20260504T06Z_MSC_RDPS_GeopotentialHeight_IsbL-0001_RLatLon0.09_PT018H.grib2 2026-05-04 08:43 317K
20260504T06Z_MSC_RDPS_GeopotentialHeight_IsbL-0005_RLatLon0.09_PT018H.grib2 2026-05-04 08:43 339K
20260504T06Z_MSC_RDPS_GeopotentialHeight_IsbL-0010_RLatLon0.09_PT018H.grib2 2026-05-04 08:43 306K
20260504T06Z_MSC_RDPS_GeopotentialHeight_IsbL-0020_RLatLon0.09_PT018H.grib2 2026-05-04 08:43 402K
20260504T06Z_MSC_RDPS_GeopotentialHeight_IsbL-0030_RLatLon0.09_PT018H.grib2 2026-05-04 08:43 405K
20260504T06Z_MSC_RDPS_GeopotentialHeight_IsbL-0050_RLatLon0.09_PT018H.grib2 2026-05-04 08:43 311K
20260504T06Z_MSC_RDPS_GeopotentialHeight_IsbL-0100_RLatLon0.09_PT018H.grib2 2026-05-04 08:43 291K
20260504T06Z_MSC_RDPS_GeopotentialHeight_IsbL-0150_RLatLon0.09_PT018H.grib2 2026-05-04 08:43 233K
20260504T06Z_MSC_RDPS_GeopotentialHeight_IsbL-0175_RLatLon0.09_PT018H.grib2 2026-05-04 08:43 236K
20260504T06Z_MSC_RDPS_GeopotentialHeight_IsbL-0200_RLatLon0.09_PT018H.grib2 2026-05-04 08:43 239K
20260504T06Z_MSC_RDPS_GeopotentialHeight_IsbL-0225_RLatLon0.09_PT018H.grib2 2026-05-04 08:43 240K
20260504T06Z_MSC_RDPS_GeopotentialHeight_IsbL-0250_RLatLon0.09_PT018H.grib2 2026-05-04 08:43 241K
20260504T06Z_MSC_RDPS_GeopotentialHeight_IsbL-0275_RLatLon0.09_PT018H.grib2 2026-05-04 08:43 239K
20260504T06Z_MSC_RDPS_GeopotentialHeight_IsbL-0300_RLatLon0.09_PT018H.grib2 2026-05-04 08:43 239K
20260504T06Z_MSC_RDPS_GeopotentialHeight_IsbL-0350_RLatLon0.09_PT018H.grib2 2026-05-04 08:43 234K
20260504T06Z_MSC_RDPS_GeopotentialHeight_IsbL-0400_RLatLon0.09_PT018H.grib2 2026-05-04 08:43 305K
20260504T06Z_MSC_RDPS_GeopotentialHeight_IsbL-0450_RLatLon0.09_PT018H.grib2 2026-05-04 08:43 301K
20260504T06Z_MSC_RDPS_GeopotentialHeight_IsbL-0500_RLatLon0.09_PT018H.grib2 2026-05-04 08:43 297K
20260504T06Z_MSC_RDPS_GeopotentialHeight_IsbL-0550_RLatLon0.09_PT018H.grib2 2026-05-04 08:43 294K
20260504T06Z_MSC_RDPS_GeopotentialHeight_IsbL-0600_RLatLon0.09_PT018H.grib2 2026-05-04 08:43 263K
20260504T06Z_MSC_RDPS_GeopotentialHeight_IsbL-0650_RLatLon0.09_PT018H.grib2 2026-05-04 08:43 260K
20260504T06Z_MSC_RDPS_GeopotentialHeight_IsbL-0700_RLatLon0.09_PT018H.grib2 2026-05-04 08:43 259K
20260504T06Z_MSC_RDPS_GeopotentialHeight_IsbL-0750_RLatLon0.09_PT018H.grib2 2026-05-04 08:43 343K
20260504T06Z_MSC_RDPS_GeopotentialHeight_IsbL-0800_RLatLon0.09_PT018H.grib2 2026-05-04 08:43 350K
20260504T06Z_MSC_RDPS_GeopotentialHeight_IsbL-0850_RLatLon0.09_PT018H.grib2 2026-05-04 08:43 359K
20260504T06Z_MSC_RDPS_GeopotentialHeight_IsbL-0875_RLatLon0.09_PT018H.grib2 2026-05-04 08:43 360K
20260504T06Z_MSC_RDPS_GeopotentialHeight_IsbL-0900_RLatLon0.09_PT018H.grib2 2026-05-04 08:43 365K
20260504T06Z_MSC_RDPS_GeopotentialHeight_IsbL-0925_RLatLon0.09_PT018H.grib2 2026-05-04 08:43 368K
20260504T06Z_MSC_RDPS_GeopotentialHeight_IsbL-0950_RLatLon0.09_PT018H.grib2 2026-05-04 08:43 282K
20260504T06Z_MSC_RDPS_GeopotentialHeight_IsbL-0970_RLatLon0.09_PT018H.grib2 2026-05-04 08:43 287K
20260504T06Z_MSC_RDPS_GeopotentialHeight_IsbL-0985_RLatLon0.09_PT018H.grib2 2026-05-04 08:43 293K
20260504T06Z_MSC_RDPS_GeopotentialHeight_IsbL-1000_RLatLon0.09_PT018H.grib2 2026-05-04 08:43 301K
20260504T06Z_MSC_RDPS_GeopotentialHeight_IsbL-1015_RLatLon0.09_PT018H.grib2 2026-05-04 08:43 312K
20260504T06Z_MSC_RDPS_Humidex_Sfc_RLatLon0.09_PT018H.grib2 2026-05-04 08:43 2.2M
20260504T06Z_MSC_RDPS_IcePellets-Accum12h_Sfc_RLatLon0.09_PT018H.grib2 2026-05-04 08:43 13K
20260504T06Z_MSC_RDPS_IcePellets-Accum1h_Sfc_RLatLon0.09_PT018H.grib2 2026-05-04 08:43 6.5K
20260504T06Z_MSC_RDPS_IcePellets-Accum3h_Sfc_RLatLon0.09_PT018H.grib2 2026-05-04 08:43 6.7K
20260504T06Z_MSC_RDPS_IcePellets-Accum6h_Sfc_RLatLon0.09_PT018H.grib2 2026-05-04 08:43 9.6K
20260504T06Z_MSC_RDPS_IcePellets-Accum_Sfc_RLatLon0.09_PT018H.grib2 2026-05-04 08:43 15K
20260504T06Z_MSC_RDPS_KIndex_Sfc_RLatLon0.09_PT018H.grib2 2026-05-04 08:43 2.4M
20260504T06Z_MSC_RDPS_LatentHeatNetFlux_Sfc_RLatLon0.09_PT018H.grib2 2026-05-04 08:43 368K
20260504T06Z_MSC_RDPS_LiftedIndex-MU-VT_IsbL-0500_RLatLon0.09_PT018H.grib2 2026-05-04 08:43 2.4M
20260504T06Z_MSC_RDPS_NetLongwaveRadiationFlux-Accum_Sfc_RLatLon0.09_PT018H.grib2 2026-05-04 08:43 546K
20260504T06Z_MSC_RDPS_NetShortwaveRadiationFlux-Accum_Sfc_RLatLon0.09_PT018H.grib2 2026-05-04 08:43 618K
20260504T06Z_MSC_RDPS_PlanetaryBoundaryLayerHeight_Sfc_RLatLon0.09_PT018H.grib2 2026-05-04 08:43 1.0M
20260504T06Z_MSC_RDPS_Precip-Accum12h_Sfc_RLatLon0.09_PT018H.grib2 2026-05-04 08:43 1.6M
20260504T06Z_MSC_RDPS_Precip-Accum1h_Sfc_RLatLon0.09_PT018H.grib2 2026-05-04 08:43 1.2M
20260504T06Z_MSC_RDPS_Precip-Accum3h_Sfc_RLatLon0.09_PT018H.grib2 2026-05-04 08:43 1.3M
20260504T06Z_MSC_RDPS_Precip-Accum6h_Sfc_RLatLon0.09_PT018H.grib2 2026-05-04 08:43 1.5M
20260504T06Z_MSC_RDPS_Precip-Accum_Sfc_RLatLon0.09_PT018H.grib2 2026-05-04 08:43 1.8M
20260504T06Z_MSC_RDPS_PrecipRate_Sfc_RLatLon0.09_PT018H.grib2 2026-05-04 08:43 189K
20260504T06Z_MSC_RDPS_PrecipType-Instant_Sfc_RLatLon0.09_PT018H.grib2 2026-05-04 08:43 573K
20260504T06Z_MSC_RDPS_Pressure-Trend3h_Sfc_RLatLon0.09_PT018H.grib2 2026-05-04 08:43 1.2M
20260504T06Z_MSC_RDPS_Pressure_MSL_RLatLon0.09_PT018H.grib2 2026-05-04 08:43 328K
20260504T06Z_MSC_RDPS_Pressure_PVU-1.5_RLatLon0.09_PT018H.grib2 2026-05-04 08:43 2.5M
20260504T06Z_MSC_RDPS_Pressure_PVU-1_RLatLon0.09_PT018H.grib2 2026-05-04 08:43 2.4M
20260504T06Z_MSC_RDPS_Pressure_PVU-2_RLatLon0.09_PT018H.grib2 2026-05-04 08:43 2.4M
20260504T06Z_MSC_RDPS_Pressure_Sfc_RLatLon0.09_PT018H.grib2 2026-05-04 08:43 498K
20260504T06Z_MSC_RDPS_RadiativeTemp_Sfc_RLatLon0.09_PT018H.grib2 2026-05-04 08:43 313K
20260504T06Z_MSC_RDPS_Rain-Accum12h_Sfc_RLatLon0.09_PT018H.grib2 2026-05-04 08:43 1.1M
20260504T06Z_MSC_RDPS_Rain-Accum1h_Sfc_RLatLon0.09_PT018H.grib2 2026-05-04 08:43 605K
20260504T06Z_MSC_RDPS_Rain-Accum3h_Sfc_RLatLon0.09_PT018H.grib2 2026-05-04 08:43 699K
20260504T06Z_MSC_RDPS_Rain-Accum6h_Sfc_RLatLon0.09_PT018H.grib2 2026-05-04 08:43 1.0M
20260504T06Z_MSC_RDPS_Rain-Accum_Sfc_RLatLon0.09_PT018H.grib2 2026-05-04 08:43 1.4M
20260504T06Z_MSC_RDPS_RelativeHumidity_AGL-2m_RLatLon0.09_PT018H.grib2 2026-05-04 08:43 1.0M
20260504T06Z_MSC_RDPS_RelativeHumidity_IsbL-0010_RLatLon0.09_PT018H.grib2 2026-05-04 08:43 615K
20260504T06Z_MSC_RDPS_RelativeHumidity_IsbL-0020_RLatLon0.09_PT018H.grib2 2026-05-04 08:43 668K
20260504T06Z_MSC_RDPS_RelativeHumidity_IsbL-0030_RLatLon0.09_PT018H.grib2 2026-05-04 08:43 602K
20260504T06Z_MSC_RDPS_RelativeHumidity_IsbL-0050_RLatLon0.09_PT018H.grib2 2026-05-04 08:43 361K
20260504T06Z_MSC_RDPS_RelativeHumidity_IsbL-0100_RLatLon0.09_PT018H.grib2 2026-05-04 08:43 290K
20260504T06Z_MSC_RDPS_RelativeHumidity_IsbL-0150_RLatLon0.09_PT018H.grib2 2026-05-04 08:43 415K
20260504T06Z_MSC_RDPS_RelativeHumidity_IsbL-0175_RLatLon0.09_PT018H.grib2 2026-05-04 08:43 485K
20260504T06Z_MSC_RDPS_RelativeHumidity_IsbL-0200_RLatLon0.09_PT018H.grib2 2026-05-04 08:43 562K
20260504T06Z_MSC_RDPS_RelativeHumidity_IsbL-0225_RLatLon0.09_PT018H.grib2 2026-05-04 08:43 629K
20260504T06Z_MSC_RDPS_RelativeHumidity_IsbL-0250_RLatLon0.09_PT018H.grib2 2026-05-04 08:43 698K
20260504T06Z_MSC_RDPS_RelativeHumidity_IsbL-0275_RLatLon0.09_PT018H.grib2 2026-05-04 08:43 716K
20260504T06Z_MSC_RDPS_RelativeHumidity_IsbL-0300_RLatLon0.09_PT018H.grib2 2026-05-04 08:43 749K
20260504T06Z_MSC_RDPS_RelativeHumidity_IsbL-0350_RLatLon0.09_PT018H.grib2 2026-05-04 08:43 773K
20260504T06Z_MSC_RDPS_RelativeHumidity_IsbL-0400_RLatLon0.09_PT018H.grib2 2026-05-04 08:43 786K
20260504T06Z_MSC_RDPS_RelativeHumidity_IsbL-0450_RLatLon0.09_PT018H.grib2 2026-05-04 08:43 792K
20260504T06Z_MSC_RDPS_RelativeHumidity_IsbL-0500_RLatLon0.09_PT018H.grib2 2026-05-04 08:43 797K
20260504T06Z_MSC_RDPS_RelativeHumidity_IsbL-0550_RLatLon0.09_PT018H.grib2 2026-05-04 08:43 828K
20260504T06Z_MSC_RDPS_RelativeHumidity_IsbL-0600_RLatLon0.09_PT018H.grib2 2026-05-04 08:43 845K
20260504T06Z_MSC_RDPS_RelativeHumidity_IsbL-0650_RLatLon0.09_PT018H.grib2 2026-05-04 08:43 865K
20260504T06Z_MSC_RDPS_RelativeHumidity_IsbL-0700_RLatLon0.09_PT018H.grib2 2026-05-04 08:43 890K
20260504T06Z_MSC_RDPS_RelativeHumidity_IsbL-0750_RLatLon0.09_PT018H.grib2 2026-05-04 08:43 926K
20260504T06Z_MSC_RDPS_RelativeHumidity_IsbL-0800_RLatLon0.09_PT018H.grib2 2026-05-04 08:43 1.0M
20260504T06Z_MSC_RDPS_RelativeHumidity_IsbL-0850_RLatLon0.09_PT018H.grib2 2026-05-04 08:43 1.0M
20260504T06Z_MSC_RDPS_RelativeHumidity_IsbL-0875_RLatLon0.09_PT018H.grib2 2026-05-04 08:43 1.1M
20260504T06Z_MSC_RDPS_RelativeHumidity_IsbL-0900_RLatLon0.09_PT018H.grib2 2026-05-04 08:43 1.1M
20260504T06Z_MSC_RDPS_RelativeHumidity_IsbL-0925_RLatLon0.09_PT018H.grib2 2026-05-04 08:43 1.1M
20260504T06Z_MSC_RDPS_RelativeHumidity_IsbL-0950_RLatLon0.09_PT018H.grib2 2026-05-04 08:43 1.1M
20260504T06Z_MSC_RDPS_RelativeHumidity_IsbL-0970_RLatLon0.09_PT018H.grib2 2026-05-04 08:43 1.0M
20260504T06Z_MSC_RDPS_RelativeHumidity_IsbL-0985_RLatLon0.09_PT018H.grib2 2026-05-04 08:43 1.0M
20260504T06Z_MSC_RDPS_RelativeHumidity_IsbL-1000_RLatLon0.09_PT018H.grib2 2026-05-04 08:43 1.0M
20260504T06Z_MSC_RDPS_RelativeHumidity_IsbL-1015_RLatLon0.09_PT018H.grib2 2026-05-04 08:43 1.0M
20260504T06Z_MSC_RDPS_Runoff-Accum_Sfc_RLatLon0.09_PT018H.grib2 2026-05-04 08:43 45K
20260504T06Z_MSC_RDPS_SWEATIndex_Sfc_RLatLon0.09_PT018H.grib2 2026-05-04 08:43 2.4M
20260504T06Z_MSC_RDPS_SeeingIndex_EAtm_RLatLon0.09_PT018H.grib2 2026-05-04 08:43 1.0M
20260504T06Z_MSC_RDPS_SensibleHeatNetFlux_Sfc_RLatLon0.09_PT018H.grib2 2026-05-04 08:43 324K
20260504T06Z_MSC_RDPS_ShowalterIndex_IsbL-0500_RLatLon0.09_PT018H.grib2 2026-05-04 08:43 2.6M
20260504T06Z_MSC_RDPS_SkyTransparencyIndex_EAtm_RLatLon0.09_PT018H.grib2 2026-05-04 08:43 726K
20260504T06Z_MSC_RDPS_Snow-Accum12h_Sfc_RLatLon0.09_PT018H.grib2 2026-05-04 08:43 559K
20260504T06Z_MSC_RDPS_Snow-Accum1h_Sfc_RLatLon0.09_PT018H.grib2 2026-05-04 08:43 444K
20260504T06Z_MSC_RDPS_Snow-Accum3h_Sfc_RLatLon0.09_PT018H.grib2 2026-05-04 08:43 377K
20260504T06Z_MSC_RDPS_Snow-Accum6h_Sfc_RLatLon0.09_PT018H.grib2 2026-05-04 08:43 511K
20260504T06Z_MSC_RDPS_Snow-Accum_Sfc_RLatLon0.09_PT018H.grib2 2026-05-04 08:43 654K
20260504T06Z_MSC_RDPS_SnowDensity_Sfc_RLatLon0.09_PT018H.grib2 2026-05-04 08:43 169K
20260504T06Z_MSC_RDPS_SnowDepth_Sfc_RLatLon0.09_PT018H.grib2 2026-05-04 08:43 649K
20260504T06Z_MSC_RDPS_SoilTemp_DBS-0to10cm_RLatLon0.09_PT018H.grib2 2026-05-04 08:43 225K
20260504T06Z_MSC_RDPS_SoilTemp_Sfc_RLatLon0.09_PT018H.grib2 2026-05-04 08:43 271K
20260504T06Z_MSC_RDPS_SoilVolumetricIceContent_Sfc_RLatLon0.09_PT018H.grib2 2026-05-04 08:43 154K
20260504T06Z_MSC_RDPS_SoilVolumetricWaterContent_DBS-0to10cm_RLatLon0.09_PT018H.grib2 2026-05-04 08:43 275K
20260504T06Z_MSC_RDPS_SoilVolumetricWaterContent_DBS-0to1cm_RLatLon0.09_PT018H.grib2 2026-05-04 08:43 337K
20260504T06Z_MSC_RDPS_SpecificHumidity_AGL-120m_RLatLon0.09_PT018H.grib2 2026-05-04 08:43 490K
20260504T06Z_MSC_RDPS_SpecificHumidity_AGL-2m_RLatLon0.09_PT018H.grib2 2026-05-04 08:43 663K
20260504T06Z_MSC_RDPS_SpecificHumidity_AGL-40m_RLatLon0.09_PT018H.grib2 2026-05-04 08:43 496K
20260504T06Z_MSC_RDPS_SpecificHumidity_AGL-80m_RLatLon0.09_PT018H.grib2 2026-05-04 08:43 491K
20260504T06Z_MSC_RDPS_SpecificHumidity_IsbL-0001_RLatLon0.09_PT018H.grib2 2026-05-04 08:43 301K
20260504T06Z_MSC_RDPS_SpecificHumidity_IsbL-0005_RLatLon0.09_PT018H.grib2 2026-05-04 08:43 371K
20260504T06Z_MSC_RDPS_SpecificHumidity_IsbL-0010_RLatLon0.09_PT018H.grib2 2026-05-04 08:43 401K
20260504T06Z_MSC_RDPS_SpecificHumidity_IsbL-0020_RLatLon0.09_PT018H.grib2 2026-05-04 08:43 385K
20260504T06Z_MSC_RDPS_SpecificHumidity_IsbL-0030_RLatLon0.09_PT018H.grib2 2026-05-04 08:43 379K
20260504T06Z_MSC_RDPS_SpecificHumidity_IsbL-0050_RLatLon0.09_PT018H.grib2 2026-05-04 08:43 491K
20260504T06Z_MSC_RDPS_SpecificHumidity_IsbL-0100_RLatLon0.09_PT018H.grib2 2026-05-04 08:43 432K
20260504T06Z_MSC_RDPS_SpecificHumidity_IsbL-0150_RLatLon0.09_PT018H.grib2 2026-05-04 08:43 455K
20260504T06Z_MSC_RDPS_SpecificHumidity_IsbL-0175_RLatLon0.09_PT018H.grib2 2026-05-04 08:43 448K
20260504T06Z_MSC_RDPS_SpecificHumidity_IsbL-0200_RLatLon0.09_PT018H.grib2 2026-05-04 08:43 468K
20260504T06Z_MSC_RDPS_SpecificHumidity_IsbL-0225_RLatLon0.09_PT018H.grib2 2026-05-04 08:43 470K
20260504T06Z_MSC_RDPS_SpecificHumidity_IsbL-0250_RLatLon0.09_PT018H.grib2 2026-05-04 08:43 579K
20260504T06Z_MSC_RDPS_SpecificHumidity_IsbL-0275_RLatLon0.09_PT018H.grib2 2026-05-04 08:43 490K
20260504T06Z_MSC_RDPS_SpecificHumidity_IsbL-0300_RLatLon0.09_PT018H.grib2 2026-05-04 08:43 583K
20260504T06Z_MSC_RDPS_SpecificHumidity_IsbL-0350_RLatLon0.09_PT018H.grib2 2026-05-04 08:43 552K
20260504T06Z_MSC_RDPS_SpecificHumidity_IsbL-0400_RLatLon0.09_PT018H.grib2 2026-05-04 08:43 530K
20260504T06Z_MSC_RDPS_SpecificHumidity_IsbL-0450_RLatLon0.09_PT018H.grib2 2026-05-04 08:43 580K
20260504T06Z_MSC_RDPS_SpecificHumidity_IsbL-0500_RLatLon0.09_PT018H.grib2 2026-05-04 08:43 514K
20260504T06Z_MSC_RDPS_SpecificHumidity_IsbL-0550_RLatLon0.09_PT018H.grib2 2026-05-04 08:43 584K
20260504T06Z_MSC_RDPS_SpecificHumidity_IsbL-0600_RLatLon0.09_PT018H.grib2 2026-05-04 08:43 636K
20260504T06Z_MSC_RDPS_SpecificHumidity_IsbL-0650_RLatLon0.09_PT018H.grib2 2026-05-04 08:43 555K
20260504T06Z_MSC_RDPS_SpecificHumidity_IsbL-0700_RLatLon0.09_PT018H.grib2 2026-05-04 08:43 603K
20260504T06Z_MSC_RDPS_SpecificHumidity_IsbL-0750_RLatLon0.09_PT018H.grib2 2026-05-04 08:43 655K
20260504T06Z_MSC_RDPS_SpecificHumidity_IsbL-0800_RLatLon0.09_PT018H.grib2 2026-05-04 08:43 738K
20260504T06Z_MSC_RDPS_SpecificHumidity_IsbL-0850_RLatLon0.09_PT018H.grib2 2026-05-04 08:43 814K
20260504T06Z_MSC_RDPS_SpecificHumidity_IsbL-0875_RLatLon0.09_PT018H.grib2 2026-05-04 08:43 839K
20260504T06Z_MSC_RDPS_SpecificHumidity_IsbL-0900_RLatLon0.09_PT018H.grib2 2026-05-04 08:43 710K
20260504T06Z_MSC_RDPS_SpecificHumidity_IsbL-0925_RLatLon0.09_PT018H.grib2 2026-05-04 08:43 711K
20260504T06Z_MSC_RDPS_SpecificHumidity_IsbL-0950_RLatLon0.09_PT018H.grib2 2026-05-04 08:43 710K
20260504T06Z_MSC_RDPS_SpecificHumidity_IsbL-0970_RLatLon0.09_PT018H.grib2 2026-05-04 08:43 701K
20260504T06Z_MSC_RDPS_SpecificHumidity_IsbL-0985_RLatLon0.09_PT018H.grib2 2026-05-04 08:43 694K
20260504T06Z_MSC_RDPS_SpecificHumidity_IsbL-1000_RLatLon0.09_PT018H.grib2 2026-05-04 08:43 688K
20260504T06Z_MSC_RDPS_SpecificHumidity_IsbL-1015_RLatLon0.09_PT018H.grib2 2026-05-04 08:43 679K
20260504T06Z_MSC_RDPS_SpecificHumidity_Sfc_RLatLon0.09_PT018H.grib2 2026-05-04 08:43 335K
20260504T06Z_MSC_RDPS_StormRelativeHelicity_EtaL-10000_RLatLon0.09_PT018H.grib2 2026-05-04 08:43 1.1M
20260504T06Z_MSC_RDPS_StormSeverityIndex_EtaL-10000_RLatLon0.09_PT018H.grib2 2026-05-04 08:43 1.2M
20260504T06Z_MSC_RDPS_Thickness_IsbL-0850to0700_RLatLon0.09_PT018H.grib2 2026-05-04 08:43 178K
20260504T06Z_MSC_RDPS_Thickness_IsbL-1000to0500_RLatLon0.09_PT018H.grib2 2026-05-04 08:43 201K
20260504T06Z_MSC_RDPS_Thickness_IsbL-1000to0850_RLatLon0.09_PT018H.grib2 2026-05-04 08:43 185K
20260504T06Z_MSC_RDPS_TotalCloudCover_Sfc_RLatLon0.09_PT018H.grib2 2026-05-04 08:43 660K
20260504T06Z_MSC_RDPS_TotalTotalsIndex_Sfc_RLatLon0.09_PT018H.grib2 2026-05-04 08:43 2.4M
20260504T06Z_MSC_RDPS_UVIndex-ClearSky_Sfc_RLatLon0.09_PT018H.grib2 2026-05-04 08:43 191K
20260504T06Z_MSC_RDPS_UVIndex_Sfc_RLatLon0.09_PT018H.grib2 2026-05-04 08:43 404K
20260504T06Z_MSC_RDPS_UpwardLongwaveRadiationFlux_NTAtm_RLatLon0.09_PT018H.grib2 2026-05-04 08:43 501K
20260504T06Z_MSC_RDPS_UpwardShortwaveRadiationFlux_NTAtm_RLatLon0.09_PT018H.grib2 2026-05-04 08:43 348K
20260504T06Z_MSC_RDPS_VerticalVelocity_IsbL-0250_RLatLon0.09_PT018H.grib2 2026-05-04 08:43 443K
20260504T06Z_MSC_RDPS_VerticalVelocity_IsbL-0500_RLatLon0.09_PT018H.grib2 2026-05-04 08:43 689K
20260504T06Z_MSC_RDPS_VerticalVelocity_IsbL-0700_RLatLon0.09_PT018H.grib2 2026-05-04 08:43 608K
20260504T06Z_MSC_RDPS_VerticalVelocity_IsbL-0850_RLatLon0.09_PT018H.grib2 2026-05-04 08:43 708K
20260504T06Z_MSC_RDPS_VerticalWindShear_EtaL-6500_RLatLon0.09_PT018H.grib2 2026-05-04 08:43 1.2M
20260504T06Z_MSC_RDPS_WindChill_Sfc_RLatLon0.09_PT018H.grib2 2026-05-04 08:43 1.1M
20260504T06Z_MSC_RDPS_WindDir_AGL-10m_RLatLon0.09_PT018H.grib2 2026-05-04 08:43 952K
20260504T06Z_MSC_RDPS_WindDir_AGL-120m_RLatLon0.09_PT018H.grib2 2026-05-04 08:43 597K
20260504T06Z_MSC_RDPS_WindDir_AGL-40m_RLatLon0.09_PT018H.grib2 2026-05-04 08:43 620K
20260504T06Z_MSC_RDPS_WindDir_AGL-80m_RLatLon0.09_PT018H.grib2 2026-05-04 08:43 606K
20260504T06Z_MSC_RDPS_WindDir_IsbL-0001_RLatLon0.09_PT018H.grib2 2026-05-04 08:43 276K
20260504T06Z_MSC_RDPS_WindDir_IsbL-0005_RLatLon0.09_PT018H.grib2 2026-05-04 08:43 381K
20260504T06Z_MSC_RDPS_WindDir_IsbL-0010_RLatLon0.09_PT018H.grib2 2026-05-04 08:43 390K
20260504T06Z_MSC_RDPS_WindDir_IsbL-0020_RLatLon0.09_PT018H.grib2 2026-05-04 08:43 416K
20260504T06Z_MSC_RDPS_WindDir_IsbL-0030_RLatLon0.09_PT018H.grib2 2026-05-04 08:43 411K
20260504T06Z_MSC_RDPS_WindDir_IsbL-0050_RLatLon0.09_PT018H.grib2 2026-05-04 08:43 423K
20260504T06Z_MSC_RDPS_WindDir_IsbL-0100_RLatLon0.09_PT018H.grib2 2026-05-04 08:43 416K
20260504T06Z_MSC_RDPS_WindDir_IsbL-0150_RLatLon0.09_PT018H.grib2 2026-05-04 08:43 424K
20260504T06Z_MSC_RDPS_WindDir_IsbL-0175_RLatLon0.09_PT018H.grib2 2026-05-04 08:43 445K
20260504T06Z_MSC_RDPS_WindDir_IsbL-0200_RLatLon0.09_PT018H.grib2 2026-05-04 08:43 455K
20260504T06Z_MSC_RDPS_WindDir_IsbL-0225_RLatLon0.09_PT018H.grib2 2026-05-04 08:43 454K
20260504T06Z_MSC_RDPS_WindDir_IsbL-0250_RLatLon0.09_PT018H.grib2 2026-05-04 08:43 453K
20260504T06Z_MSC_RDPS_WindDir_IsbL-0275_RLatLon0.09_PT018H.grib2 2026-05-04 08:43 476K
20260504T06Z_MSC_RDPS_WindDir_IsbL-0300_RLatLon0.09_PT018H.grib2 2026-05-04 08:43 478K
20260504T06Z_MSC_RDPS_WindDir_IsbL-0350_RLatLon0.09_PT018H.grib2 2026-05-04 08:43 501K
20260504T06Z_MSC_RDPS_WindDir_IsbL-0400_RLatLon0.09_PT018H.grib2 2026-05-04 08:43 522K
20260504T06Z_MSC_RDPS_WindDir_IsbL-0450_RLatLon0.09_PT018H.grib2 2026-05-04 08:43 536K
20260504T06Z_MSC_RDPS_WindDir_IsbL-0500_RLatLon0.09_PT018H.grib2 2026-05-04 08:43 540K
20260504T06Z_MSC_RDPS_WindDir_IsbL-0550_RLatLon0.09_PT018H.grib2 2026-05-04 08:43 555K
20260504T06Z_MSC_RDPS_WindDir_IsbL-0600_RLatLon0.09_PT018H.grib2 2026-05-04 08:43 579K
20260504T06Z_MSC_RDPS_WindDir_IsbL-0650_RLatLon0.09_PT018H.grib2 2026-05-04 08:43 618K
20260504T06Z_MSC_RDPS_WindDir_IsbL-0700_RLatLon0.09_PT018H.grib2 2026-05-04 08:43 657K
20260504T06Z_MSC_RDPS_WindDir_IsbL-0750_RLatLon0.09_PT018H.grib2 2026-05-04 08:43 707K
20260504T06Z_MSC_RDPS_WindDir_IsbL-0800_RLatLon0.09_PT018H.grib2 2026-05-04 08:43 775K
20260504T06Z_MSC_RDPS_WindDir_IsbL-0850_RLatLon0.09_PT018H.grib2 2026-05-04 08:43 859K
20260504T06Z_MSC_RDPS_WindDir_IsbL-0875_RLatLon0.09_PT018H.grib2 2026-05-04 08:43 887K
20260504T06Z_MSC_RDPS_WindDir_IsbL-0900_RLatLon0.09_PT018H.grib2 2026-05-04 08:43 901K
20260504T06Z_MSC_RDPS_WindDir_IsbL-0925_RLatLon0.09_PT018H.grib2 2026-05-04 08:43 904K
20260504T06Z_MSC_RDPS_WindDir_IsbL-0950_RLatLon0.09_PT018H.grib2 2026-05-04 08:43 901K
20260504T06Z_MSC_RDPS_WindDir_IsbL-0970_RLatLon0.09_PT018H.grib2 2026-05-04 08:43 905K
20260504T06Z_MSC_RDPS_WindDir_IsbL-0985_RLatLon0.09_PT018H.grib2 2026-05-04 08:43 914K
20260504T06Z_MSC_RDPS_WindDir_IsbL-1000_RLatLon0.09_PT018H.grib2 2026-05-04 08:43 927K
20260504T06Z_MSC_RDPS_WindDir_IsbL-1015_RLatLon0.09_PT018H.grib2 2026-05-04 08:43 942K
20260504T06Z_MSC_RDPS_WindGust-Max_AGL-10m_RLatLon0.09_PT018H.grib2 2026-05-04 08:43 956K
20260504T06Z_MSC_RDPS_WindGust-Min_AGL-10m_RLatLon0.09_PT018H.grib2 2026-05-04 08:43 1.0M
20260504T06Z_MSC_RDPS_WindGust_AGL-10m_RLatLon0.09_PT018H.grib2 2026-05-04 08:43 1.0M
20260504T06Z_MSC_RDPS_WindSpeed_AGL-10m_RLatLon0.09_PT018H.grib2 2026-05-04 08:43 846K
20260504T06Z_MSC_RDPS_WindSpeed_AGL-120m_RLatLon0.09_PT018H.grib2 2026-05-04 08:43 537K
20260504T06Z_MSC_RDPS_WindSpeed_AGL-40m_RLatLon0.09_PT018H.grib2 2026-05-04 08:43 675K
20260504T06Z_MSC_RDPS_WindSpeed_AGL-80m_RLatLon0.09_PT018H.grib2 2026-05-04 08:43 539K
20260504T06Z_MSC_RDPS_WindSpeed_IsbL-0001_RLatLon0.09_PT018H.grib2 2026-05-04 08:43 253K
20260504T06Z_MSC_RDPS_WindSpeed_IsbL-0005_RLatLon0.09_PT018H.grib2 2026-05-04 08:43 348K
20260504T06Z_MSC_RDPS_WindSpeed_IsbL-0010_RLatLon0.09_PT018H.grib2 2026-05-04 08:43 394K
20260504T06Z_MSC_RDPS_WindSpeed_IsbL-0020_RLatLon0.09_PT018H.grib2 2026-05-04 08:43 416K
20260504T06Z_MSC_RDPS_WindSpeed_IsbL-0030_RLatLon0.09_PT018H.grib2 2026-05-04 08:43 319K
20260504T06Z_MSC_RDPS_WindSpeed_IsbL-0050_RLatLon0.09_PT018H.grib2 2026-05-04 08:43 354K
20260504T06Z_MSC_RDPS_WindSpeed_IsbL-0100_RLatLon0.09_PT018H.grib2 2026-05-04 08:43 486K
20260504T06Z_MSC_RDPS_WindSpeed_IsbL-0150_RLatLon0.09_PT018H.grib2 2026-05-04 08:43 387K
20260504T06Z_MSC_RDPS_WindSpeed_IsbL-0175_RLatLon0.09_PT018H.grib2 2026-05-04 08:43 433K
20260504T06Z_MSC_RDPS_WindSpeed_IsbL-0200_RLatLon0.09_PT018H.grib2 2026-05-04 08:43 447K
20260504T06Z_MSC_RDPS_WindSpeed_IsbL-0225_RLatLon0.09_PT018H.grib2 2026-05-04 08:43 454K
20260504T06Z_MSC_RDPS_WindSpeed_IsbL-0250_RLatLon0.09_PT018H.grib2 2026-05-04 08:43 457K
20260504T06Z_MSC_RDPS_WindSpeed_IsbL-0275_RLatLon0.09_PT018H.grib2 2026-05-04 08:43 472K
20260504T06Z_MSC_RDPS_WindSpeed_IsbL-0300_RLatLon0.09_PT018H.grib2 2026-05-04 08:43 470K
20260504T06Z_MSC_RDPS_WindSpeed_IsbL-0350_RLatLon0.09_PT018H.grib2 2026-05-04 08:43 479K
20260504T06Z_MSC_RDPS_WindSpeed_IsbL-0400_RLatLon0.09_PT018H.grib2 2026-05-04 08:43 483K
20260504T06Z_MSC_RDPS_WindSpeed_IsbL-0450_RLatLon0.09_PT018H.grib2 2026-05-04 08:43 467K
20260504T06Z_MSC_RDPS_WindSpeed_IsbL-0500_RLatLon0.09_PT018H.grib2 2026-05-04 08:43 470K
20260504T06Z_MSC_RDPS_WindSpeed_IsbL-0550_RLatLon0.09_PT018H.grib2 2026-05-04 08:43 471K
20260504T06Z_MSC_RDPS_WindSpeed_IsbL-0600_RLatLon0.09_PT018H.grib2 2026-05-04 08:43 600K
20260504T06Z_MSC_RDPS_WindSpeed_IsbL-0650_RLatLon0.09_PT018H.grib2 2026-05-04 08:43 619K
20260504T06Z_MSC_RDPS_WindSpeed_IsbL-0700_RLatLon0.09_PT018H.grib2 2026-05-04 08:43 639K
20260504T06Z_MSC_RDPS_WindSpeed_IsbL-0750_RLatLon0.09_PT018H.grib2 2026-05-04 08:43 667K
20260504T06Z_MSC_RDPS_WindSpeed_IsbL-0800_RLatLon0.09_PT018H.grib2 2026-05-04 08:43 714K
20260504T06Z_MSC_RDPS_WindSpeed_IsbL-0850_RLatLon0.09_PT018H.grib2 2026-05-04 08:43 778K
20260504T06Z_MSC_RDPS_WindSpeed_IsbL-0875_RLatLon0.09_PT018H.grib2 2026-05-04 08:43 801K
20260504T06Z_MSC_RDPS_WindSpeed_IsbL-0900_RLatLon0.09_PT018H.grib2 2026-05-04 08:43 815K
20260504T06Z_MSC_RDPS_WindSpeed_IsbL-0925_RLatLon0.09_PT018H.grib2 2026-05-04 08:43 872K
20260504T06Z_MSC_RDPS_WindSpeed_IsbL-0950_RLatLon0.09_PT018H.grib2 2026-05-04 08:43 874K
20260504T06Z_MSC_RDPS_WindSpeed_IsbL-0970_RLatLon0.09_PT018H.grib2 2026-05-04 08:43 868K
20260504T06Z_MSC_RDPS_WindSpeed_IsbL-0985_RLatLon0.09_PT018H.grib2 2026-05-04 08:43 862K
20260504T06Z_MSC_RDPS_WindSpeed_IsbL-1000_RLatLon0.09_PT018H.grib2 2026-05-04 08:43 855K
20260504T06Z_MSC_RDPS_WindSpeed_IsbL-1015_RLatLon0.09_PT018H.grib2 2026-05-04 08:43 846K
20260504T06Z_MSC_RDPS_WindU_AGL-10m_RLatLon0.09_PT018H.grib2 2026-05-04 08:43 433K
20260504T06Z_MSC_RDPS_WindU_AGL-120m_RLatLon0.09_PT018H.grib2 2026-05-04 08:43 532K
20260504T06Z_MSC_RDPS_WindU_AGL-40m_RLatLon0.09_PT018H.grib2 2026-05-04 08:43 538K
20260504T06Z_MSC_RDPS_WindU_AGL-80m_RLatLon0.09_PT018H.grib2 2026-05-04 08:43 535K
20260504T06Z_MSC_RDPS_WindU_IsbL-0001_RLatLon0.09_PT018H.grib2 2026-05-04 08:43 294K
20260504T06Z_MSC_RDPS_WindU_IsbL-0005_RLatLon0.09_PT018H.grib2 2026-05-04 08:43 285K
20260504T06Z_MSC_RDPS_WindU_IsbL-0010_RLatLon0.09_PT018H.grib2 2026-05-04 08:43 294K
20260504T06Z_MSC_RDPS_WindU_IsbL-0020_RLatLon0.09_PT018H.grib2 2026-05-04 08:43 312K
20260504T06Z_MSC_RDPS_WindU_IsbL-0030_RLatLon0.09_PT018H.grib2 2026-05-04 08:43 352K
20260504T06Z_MSC_RDPS_WindU_IsbL-0050_RLatLon0.09_PT018H.grib2 2026-05-04 08:43 382K
20260504T06Z_MSC_RDPS_WindU_IsbL-0100_RLatLon0.09_PT018H.grib2 2026-05-04 08:43 344K
20260504T06Z_MSC_RDPS_WindU_IsbL-0150_RLatLon0.09_PT018H.grib2 2026-05-04 08:43 404K
20260504T06Z_MSC_RDPS_WindU_IsbL-0175_RLatLon0.09_PT018H.grib2 2026-05-04 08:43 427K
20260504T06Z_MSC_RDPS_WindU_IsbL-0200_RLatLon0.09_PT018H.grib2 2026-05-04 08:43 342K
20260504T06Z_MSC_RDPS_WindU_IsbL-0225_RLatLon0.09_PT018H.grib2 2026-05-04 08:43 346K
20260504T06Z_MSC_RDPS_WindU_IsbL-0250_RLatLon0.09_PT018H.grib2 2026-05-04 08:43 347K
20260504T06Z_MSC_RDPS_WindU_IsbL-0275_RLatLon0.09_PT018H.grib2 2026-05-04 08:43 360K
20260504T06Z_MSC_RDPS_WindU_IsbL-0300_RLatLon0.09_PT018H.grib2 2026-05-04 08:43 357K
20260504T06Z_MSC_RDPS_WindU_IsbL-0350_RLatLon0.09_PT018H.grib2 2026-05-04 08:43 364K
20260504T06Z_MSC_RDPS_WindU_IsbL-0400_RLatLon0.09_PT018H.grib2 2026-05-04 08:43 367K
20260504T06Z_MSC_RDPS_WindU_IsbL-0450_RLatLon0.09_PT018H.grib2 2026-05-04 08:43 473K
20260504T06Z_MSC_RDPS_WindU_IsbL-0500_RLatLon0.09_PT018H.grib2 2026-05-04 08:43 476K
20260504T06Z_MSC_RDPS_WindU_IsbL-0550_RLatLon0.09_PT018H.grib2 2026-05-04 08:43 478K
20260504T06Z_MSC_RDPS_WindU_IsbL-0600_RLatLon0.09_PT018H.grib2 2026-05-04 08:43 488K
20260504T06Z_MSC_RDPS_WindU_IsbL-0650_RLatLon0.09_PT018H.grib2 2026-05-04 08:43 505K
20260504T06Z_MSC_RDPS_WindU_IsbL-0700_RLatLon0.09_PT018H.grib2 2026-05-04 08:43 523K
20260504T06Z_MSC_RDPS_WindU_IsbL-0750_RLatLon0.09_PT018H.grib2 2026-05-04 08:43 547K
20260504T06Z_MSC_RDPS_WindU_IsbL-0800_RLatLon0.09_PT018H.grib2 2026-05-04 08:43 586K
20260504T06Z_MSC_RDPS_WindU_IsbL-0850_RLatLon0.09_PT018H.grib2 2026-05-04 08:43 638K
20260504T06Z_MSC_RDPS_WindU_IsbL-0875_RLatLon0.09_PT018H.grib2 2026-05-04 08:43 656K
20260504T06Z_MSC_RDPS_WindU_IsbL-0900_RLatLon0.09_PT018H.grib2 2026-05-04 08:43 666K
20260504T06Z_MSC_RDPS_WindU_IsbL-0925_RLatLon0.09_PT018H.grib2 2026-05-04 08:43 666K
20260504T06Z_MSC_RDPS_WindU_IsbL-0950_RLatLon0.09_PT018H.grib2 2026-05-04 08:43 662K
20260504T06Z_MSC_RDPS_WindU_IsbL-0970_RLatLon0.09_PT018H.grib2 2026-05-04 08:43 657K
20260504T06Z_MSC_RDPS_WindU_IsbL-0985_RLatLon0.09_PT018H.grib2 2026-05-04 08:43 792K
20260504T06Z_MSC_RDPS_WindU_IsbL-1000_RLatLon0.09_PT018H.grib2 2026-05-04 08:43 786K
20260504T06Z_MSC_RDPS_WindU_IsbL-1015_RLatLon0.09_PT018H.grib2 2026-05-04 08:43 827K
20260504T06Z_MSC_RDPS_WindV_AGL-10m_RLatLon0.09_PT018H.grib2 2026-05-04 08:43 437K
20260504T06Z_MSC_RDPS_WindV_AGL-120m_RLatLon0.09_PT018H.grib2 2026-05-04 08:43 534K
20260504T06Z_MSC_RDPS_WindV_AGL-40m_RLatLon0.09_PT018H.grib2 2026-05-04 08:43 540K
20260504T06Z_MSC_RDPS_WindV_AGL-80m_RLatLon0.09_PT018H.grib2 2026-05-04 08:43 537K
20260504T06Z_MSC_RDPS_WindV_IsbL-0001_RLatLon0.09_PT018H.grib2 2026-05-04 08:43 247K
20260504T06Z_MSC_RDPS_WindV_IsbL-0005_RLatLon0.09_PT018H.grib2 2026-05-04 08:43 287K
20260504T06Z_MSC_RDPS_WindV_IsbL-0010_RLatLon0.09_PT018H.grib2 2026-05-04 08:43 295K
20260504T06Z_MSC_RDPS_WindV_IsbL-0020_RLatLon0.09_PT018H.grib2 2026-05-04 08:43 313K
20260504T06Z_MSC_RDPS_WindV_IsbL-0030_RLatLon0.09_PT018H.grib2 2026-05-04 08:43 314K
20260504T06Z_MSC_RDPS_WindV_IsbL-0050_RLatLon0.09_PT018H.grib2 2026-05-04 08:43 347K
20260504T06Z_MSC_RDPS_WindV_IsbL-0100_RLatLon0.09_PT018H.grib2 2026-05-04 08:43 341K
20260504T06Z_MSC_RDPS_WindV_IsbL-0150_RLatLon0.09_PT018H.grib2 2026-05-04 08:43 400K
20260504T06Z_MSC_RDPS_WindV_IsbL-0175_RLatLon0.09_PT018H.grib2 2026-05-04 08:43 328K
20260504T06Z_MSC_RDPS_WindV_IsbL-0200_RLatLon0.09_PT018H.grib2 2026-05-04 08:43 365K
20260504T06Z_MSC_RDPS_WindV_IsbL-0225_RLatLon0.09_PT018H.grib2 2026-05-04 08:43 370K
20260504T06Z_MSC_RDPS_WindV_IsbL-0250_RLatLon0.09_PT018H.grib2 2026-05-04 08:43 371K
20260504T06Z_MSC_RDPS_WindV_IsbL-0275_RLatLon0.09_PT018H.grib2 2026-05-04 08:43 383K
20260504T06Z_MSC_RDPS_WindV_IsbL-0300_RLatLon0.09_PT018H.grib2 2026-05-04 08:43 380K
20260504T06Z_MSC_RDPS_WindV_IsbL-0350_RLatLon0.09_PT018H.grib2 2026-05-04 08:43 386K
20260504T06Z_MSC_RDPS_WindV_IsbL-0400_RLatLon0.09_PT018H.grib2 2026-05-04 08:43 365K
20260504T06Z_MSC_RDPS_WindV_IsbL-0450_RLatLon0.09_PT018H.grib2 2026-05-04 08:43 367K
20260504T06Z_MSC_RDPS_WindV_IsbL-0500_RLatLon0.09_PT018H.grib2 2026-05-04 08:43 370K
20260504T06Z_MSC_RDPS_WindV_IsbL-0550_RLatLon0.09_PT018H.grib2 2026-05-04 08:43 475K
20260504T06Z_MSC_RDPS_WindV_IsbL-0600_RLatLon0.09_PT018H.grib2 2026-05-04 08:43 486K
20260504T06Z_MSC_RDPS_WindV_IsbL-0650_RLatLon0.09_PT018H.grib2 2026-05-04 08:43 502K
20260504T06Z_MSC_RDPS_WindV_IsbL-0700_RLatLon0.09_PT018H.grib2 2026-05-04 08:43 520K
20260504T06Z_MSC_RDPS_WindV_IsbL-0750_RLatLon0.09_PT018H.grib2 2026-05-04 08:43 543K
20260504T06Z_MSC_RDPS_WindV_IsbL-0800_RLatLon0.09_PT018H.grib2 2026-05-04 08:43 581K
20260504T06Z_MSC_RDPS_WindV_IsbL-0850_RLatLon0.09_PT018H.grib2 2026-05-04 08:43 625K
20260504T06Z_MSC_RDPS_WindV_IsbL-0875_RLatLon0.09_PT018H.grib2 2026-05-04 08:43 646K
20260504T06Z_MSC_RDPS_WindV_IsbL-0900_RLatLon0.09_PT018H.grib2 2026-05-04 08:43 658K
20260504T06Z_MSC_RDPS_WindV_IsbL-0925_RLatLon0.09_PT018H.grib2 2026-05-04 08:43 666K
20260504T06Z_MSC_RDPS_WindV_IsbL-0950_RLatLon0.09_PT018H.grib2 2026-05-04 08:43 664K
20260504T06Z_MSC_RDPS_WindV_IsbL-0970_RLatLon0.09_PT018H.grib2 2026-05-04 08:43 661K
20260504T06Z_MSC_RDPS_WindV_IsbL-0985_RLatLon0.09_PT018H.grib2 2026-05-04 08:43 797K
20260504T06Z_MSC_RDPS_WindV_IsbL-1000_RLatLon0.09_PT018H.grib2 2026-05-04 08:43 791K
20260504T06Z_MSC_RDPS_WindV_IsbL-1015_RLatLon0.09_PT018H.grib2 2026-05-04 08:43 785K